Corn Island


Codes: MNCI/RNI
Name: Corn Island
City: Corn Island
Country: Nicaragua
Elevation: 1 ft.

Photos at Corn Island


   Photos courtesy of SpottingLog. You can add your own sightings and photos by signing up for a free trial today.



No photos found.

Weather at Corn Island


Time (UTC)DescriptionTempratureWindCloud coverageVisibilityPressureHumidity
21-Jun-2024 12:00Light Rain27°C4 mph, W99%10000m1010hPa80%
21-Jun-2024 15:00Overcast Clouds27°C4 mph, NW99%10000m1010hPa79%
21-Jun-2024 18:00Overcast Clouds27°C4 mph, NW99%10000m1011hPa78%
21-Jun-2024 21:00Overcast Clouds27°C4 mph, NE100%10000m1009hPa77%
22-Jun-2024 00:00Overcast Clouds28°C9 mph, NE94%10000m1010hPa78%
22-Jun-2024 03:00Light Rain28°C7 mph, NE87%10000m1012hPa77%
22-Jun-2024 06:00Light Rain28°C2 mph, N93%10000m1012hPa75%
22-Jun-2024 09:00Light Rain28°C4 mph, NW77%10000m1011hPa76%
22-Jun-2024 12:00Overcast Clouds28°C9 mph, NW85%10000m1011hPa81%
22-Jun-2024 15:00Broken Clouds28°C9 mph, NW83%10000m1012hPa82%
22-Jun-2024 18:00Light Rain28°C9 mph, N92%10000m1011hPa78%
22-Jun-2024 21:00Overcast Clouds29°C9 mph, NE98%10000m1009hPa73%
23-Jun-2024 00:00Overcast Clouds29°C9 mph, NE92%10000m1009hPa76%
23-Jun-2024 03:00Broken Clouds28°C11 mph, E55%10000m1011hPa79%
23-Jun-2024 06:00Light Rain28°C11 mph, NE76%10000m1010hPa81%
23-Jun-2024 09:00Light Rain28°C11 mph, NE100%10000m1010hPa80%
23-Jun-2024 12:00Moderate Rain28°C11 mph, NE100%7027m1010hPa83%
23-Jun-2024 15:00Moderate Rain27°C18 mph, E100%3740m1011hPa85%
23-Jun-2024 18:00Moderate Rain26°C9 mph, NE100%10000m1011hPa88%
23-Jun-2024 21:00Light Rain27°C7 mph, N100%10000m1009hPa83%
24-Jun-2024 00:00Overcast Clouds28°C13 mph, NE100%10000m1008hPa81%
24-Jun-2024 03:00Moderate Rain28°C16 mph, NE85%9896m1010hPa84%
24-Jun-2024 06:00Moderate Rain28°C16 mph, E92%8855m1009hPa85%
24-Jun-2024 09:00Moderate Rain28°C18 mph, E100%10000m1008hPa83%
24-Jun-2024 12:00Light Rain28°C16 mph, E100%10000m1010hPa79%
24-Jun-2024 15:00Light Rain28°C16 mph, E100%10000m1011hPa80%
24-Jun-2024 18:00Moderate Rain28°C11 mph, E100%8161m1011hPa80%
24-Jun-2024 21:00Light Rain28°C9 mph, E100%10000m1009hPa78%
25-Jun-2024 00:00Overcast Clouds28°C9 mph, E96%10000m1010hPa78%
25-Jun-2024 03:00Overcast Clouds28°C7 mph, E98%10000m1011hPa78%
25-Jun-2024 06:00Light Rain28°C7 mph, E87%10000m1011hPa81%
25-Jun-2024 09:00Light Rain28°C4 mph, SE100%10000m1010hPa79%
25-Jun-2024 12:00Light Rain28°C7 mph, E100%10000m1011hPa80%
25-Jun-2024 15:00Light Rain28°C7 mph, E100%10000m1012hPa75%
25-Jun-2024 18:00Overcast Clouds29°C4 mph, SE100%10000m1012hPa72%
25-Jun-2024 21:00Overcast Clouds29°C4 mph, NE100%10000m1010hPa72%
26-Jun-2024 00:00Overcast Clouds29°C4 mph, NE100%10000m1011hPa73%
26-Jun-2024 03:00Broken Clouds29°C4 mph, NE74%10000m1012hPa73%
26-Jun-2024 06:00Broken Clouds28°C0 mph, NW84%10000m1012hPa73%
26-Jun-2024 09:00Light Rain28°C2 mph, W69%10000m1011hPa76%